Volver al catálogo

DELTA 1 DEB

ActivoLEO
NORAD 10177·DEBRIS·🇺🇸 United States

Lanzado Jul 14, 1977 desde Cape Canaveral Space Force Station

Loading…

Próximos Pases (próximas 24 horas)

TLE

ActualizadoSource: Space-Track

Época: Sep 14, 2026, 07:49 UTC

1 10177U 77065F   26257.32571972  .00005634  00000-0  81949-3 0  9991
2 10177  28.2349 326.0510 0466323 260.8142  93.9400 14.20145112309727

Sigue DELTA 1 DEB en tiempo real con AllMySat

Download on the App Store